FW4250 Weather Reports


Display with metric or nautical units.
time (UTC)temp
F
wind
direction
speed
MPH
gust
MPH
rain 1hr
in
rain 24hr
in
rain mn
in
humidity
%
barometer
mb
20260504081530 56 194 0.0 2.0 0.00 0.01 0.00 83 988.4
20260504081028 56 194 0.0 0.0 0.00 0.01 0.00 83 988.7
20260504080529 56 194 0.0 0.0 0.00 0.01 0.00 83 988.9
20260504050518 57 194 0.0 0.0 0.00 0.01 0.01 81 988.3
20260504050018 57 194 0.0 0.0 0.00 0.01 0.01 82 988.2
20260504045517 57 194 0.0 0.0 0.00 0.01 0.01 82 988.3
20260504045025 57 194 0.0 0.0 0.00 0.01 0.01 81 988.3
20260504044519 57 194 0.0 0.0 0.00 0.01 0.01 81 988.2
20260504044017 57 194 0.0 0.0 0.00 0.01 0.01 81 988.2
20260504043517 57 194 0.0 0.0 0.00 0.01 0.01 81 988.1
20260504043017 57 194 0.0 0.0 0.00 0.01 0.01 81 987.8
20260504042517 57 194 0.0 0.0 0.00 0.01 0.01 81 987.7
20260504042015 57 194 0.0 0.0 0.00 0.01 0.01 81 987.7
20260504041515 57 194 0.0 0.0 0.00 0.01 0.01 81 987.7
20260504041015 57 194 0.0 0.0 0.00 0.01 0.01 81 987.7
20260504040515 57 194 0.0 0.0 0.00 0.01 0.01 80 987.6
20260504040015 57 194 0.0 0.0 0.00 0.01 0.01 80 987.4
20260504035515 57 194 0.0 0.0 0.00 0.01 0.01 80 987.5
20260504035014 57 194 0.0 3.0 0.00 0.01 0.01 80 987.3
20260504034515 57 194 0.0 3.0 0.00 0.01 0.01 80 987.3
20260504034015 57 194 1.0 3.0 0.00 0.01 0.01 80 987.4
20260504033515 57 194 1.0 5.0 0.00 0.01 0.01 80 987.3
20260504033015 57 194 2.0 5.0 0.00 0.01 0.01 79 987.3
20260504032515 57 194 1.0 3.0 0.00 0.01 0.01 79 987.2
20260504032014 57 194 1.0 3.0 0.00 0.01 0.01 79 987.1
20260504031515 57 194 2.0 3.0 0.00 0.01 0.01 78 987.1
20260504031013 57 194 0.0 0.0 0.00 0.01 0.01 79 987.0
20260504030513 57 194 0.0 0.0 0.00 0.01 0.01 79 987.0
20260504030016 57 194 0.0 0.0 0.00 0.01 0.01 79 987.0
20260504025514 57 194 0.0 2.0 0.00 0.01 0.01 79 986.8
20260504025017 57 194 0.0 2.0 0.00 0.01 0.01 80 986.8
20260504024513 57 194 0.0 3.0 0.00 0.01 0.01 80 986.9
20260504024013 57 194 1.0 4.0 0.00 0.01 0.01 80 986.9
20260504023513 57 194 1.0 5.0 0.00 0.01 0.01 80 986.8
20260504023013 57 194 1.0 5.0 0.00 0.01 0.01 80 986.9
20260504022513 58 194 3.0 6.0 0.00 0.01 0.01 80 986.8
20260504022012 58 202 3.0 6.0 0.00 0.01 0.01 80 986.7
20260504021513 58 200 2.0 6.0 0.00 0.01 0.01 80 986.8
20260504021012 58 215 3.0 7.0 0.00 0.01 0.01 80 986.7
20260504020512 58 219 3.0 8.0 0.00 0.01 0.01 80 986.8
20260504020012 58 192 4.0 8.0 0.00 0.01 0.01 79 986.8
20260504015512 58 221 4.0 10.0 0.00 0.01 0.01 80 987.0
20260504015012 58 207 5.0 10.0 0.00 0.01 0.01 80 987.0
20260504014511 58 207 4.0 7.0 0.00 0.01 0.01 80 986.9
20260504014014 58 196 4.0 7.0 0.00 0.01 0.01 80 986.6
20260504013516 58 209 3.0 7.0 0.00 0.01 0.01 80 986.3
20260504013016 58 223 3.0 7.0 0.00 0.01 0.01 79 986.4
20260504012511 59 197 3.0 10.0 0.00 0.01 0.01 79 986.6
20260504012011 59 212 6.0 10.0 0.00 0.01 0.01 78 986.8
20260504011511 59 207 3.0 8.0 0.00 0.01 0.01 77 986.8
20260504011010 59 169 4.0 9.0 0.00 0.01 0.01 77 986.7
20260504010510 59 211 5.0 10.0 0.00 0.01 0.01 76 986.7
20260504010010 59 221 5.0 10.0 0.00 0.01 0.01 77 986.5
20260504005510 60 224 5.0 12.0 0.00 0.01 0.01 75 986.4
20260504005010 60 233 5.0 12.0 0.00 0.01 0.01 73 986.5
20260504004526 60 243 5.0 11.0 0.00 0.01 0.01 72 986.5
20260504004010 60 227 4.0 10.0 0.00 0.01 0.01 71 986.4
20260504003510 60 230 5.0 10.0 0.00 0.01 0.01 69 986.4
20260504003009 61 235 4.0 11.0 0.00 0.01 0.01 69 986.3
20260504002509 61 222 4.0 12.0 0.00 0.01 0.01 69 986.3
20260504002009 61 225 5.0 11.0 0.00 0.01 0.01 68 986.4
20260504001526 61 234 5.0 11.0 0.00 0.01 0.01 67 986.4
20260504001009 61 231 5.0 11.0 0.00 0.01 0.01 66 986.4
20260504000511 62 251 7.0 10.0 0.00 0.01 0.01 65 986.2
20260504000008 63 213 3.0 11.0 0.00 0.01 0.01 65 986.2
20260503235508 63 223 5.0 10.0 0.00 0.01 0.01 64 986.0
20260503235008 63 237 6.0 10.0 0.00 0.01 0.01 64 986.0
20260503234513 63 180 5.0 10.0 0.00 0.01 0.01 65 986.0
20260503234009 63 214 4.0 8.0 0.00 0.01 0.01 65 986.0
20260503233509 64 186 5.0 8.0 0.00 0.01 0.01 65 985.9
20260503233007 64 208 4.0 9.0 0.00 0.01 0.01 64 985.8
20260503232507 64 235 3.0 10.0 0.00 0.01 0.01 65 985.9
20260503232007 64 196 5.0 10.0 0.00 0.01 0.01 66 986.1
20260503231506 64 179 6.0 11.0 0.00 0.01 0.01 65 986.0
20260503231008 64 173 4.0 10.0 0.00 0.01 0.01 66 986.0
20260503230506 65 178 4.0 10.0 0.00 0.01 0.01 65 986.1
20260503230007 66 82 1.0 4.0 0.00 0.01 0.01 65 986.2
20260503225508 66 157 2.0 6.0 0.00 0.01 0.01 65 986.3
20260503225004 66 163 4.0 6.0 0.00 0.01 0.01 65 986.2
20260503224505 65 158 2.0 6.0 0.00 0.01 0.01 66 986.3
20260503224004 66 156 2.0 6.0 0.00 0.01 0.01 66 986.4
20260503223505 65 156 2.0 6.0 0.00 0.01 0.01 66 986.4
20260503223007 65 157 3.0 6.0 0.00 0.01 0.01 66 986.4
20260503222502 65 157 2.0 6.0 0.00 0.01 0.01 66 986.5
20260503222002 66 19 1.0 4.0 0.00 0.01 0.01 67 986.6
20260503221500 65 43 1.0 3.0 0.00 0.01 0.01 70 986.7
20260503221102 65 5 1.0 4.0 0.00 0.01 0.01 69 986.7
20260503220601 65 5 1.0 4.0 0.00 0.01 0.01 69 986.7
20260503220100 65 333 1.0 3.0 0.00 0.01 0.01 70 986.8
20260503215559 64 331 0.0 5.0 0.00 0.01 0.01 69 986.9
20260503215101 65 333 2.0 5.0 0.00 0.01 0.01 69 987.0
20260503214600 64 338 0.0 5.0 0.00 0.01 0.01 69 987.0
20260503214058 64 342 1.0 5.0 0.00 0.01 0.01 69 987.0
20260503213556 63 325 1.0 5.0 0.00 0.01 0.01 71 987.0
20260503213056 63 328 1.0 5.0 0.00 0.01 0.01 71 987.3
20260503212553 62 340 1.0 9.0 0.00 0.01 0.01 75 987.3
20260503212052 62 273 2.0 9.0 0.00 0.01 0.01 74 987.4
20260503211552 61 340 2.0 4.0 0.00 0.01 0.01 74 987.5
20260503211050 61 338 1.0 4.0 0.00 0.01 0.01 74 987.5
20260503210550 60 340 2.0 5.0 0.00 0.01 0.01 75 987.4
20260503210050 60 344 2.0 6.0 0.00 0.01 0.01 74 987.5
20260503205549 60 198 1.0 8.0 0.00 0.01 0.01 74 987.6
20260503205048 60 242 3.0 8.0 0.00 0.01 0.01 75 987.6
20260503204546 60 296 2.0 5.0 0.00 0.01 0.01 76 987.6
20260503204046 59 209 3.0 5.0 0.00 0.01 0.01 75 987.5
20260503203546 60 209 2.0 6.0 0.00 0.01 0.01 76 987.6
20260503203049 59 205 3.0 6.0 0.00 0.01 0.01 76 987.6
20260503202546 59 205 2.0 5.0 0.00 0.01 0.01 77 987.6
20260503202045 59 203 2.0 6.0 0.00 0.01 0.01 77 987.7
20260503201549 59 203 3.0 6.0 0.00 0.01 0.01 76 987.6
20260503201045 59 190 3.0 6.0 0.00 0.01 0.01 78 987.7
20260503200544 59 196 3.0 6.0 0.00 0.01 0.01 77 987.8
20260503200045 59 192 3.0 8.0 0.00 0.01 0.01 77 987.7
20260503195543 59 200 3.0 6.0 0.00 0.01 0.01 78 987.7
20260503195044 59 198 3.0 6.0 0.00 0.01 0.01 77 987.7
20260503194551 59 200 3.0 7.0 0.00 0.01 0.01 78 987.8
20260503194046 59 198 3.0 7.0 0.00 0.01 0.01 78 987.8
20260503193543 59 195 4.0 7.0 0.00 0.01 0.01 78 987.8
20260503193043 59 209 3.0 7.0 0.00 0.01 0.01 78 987.9
20260503192543 59 211 3.0 7.0 0.00 0.01 0.01 79 987.9
20260503192042 59 210 3.0 6.0 0.00 0.01 0.01 78 987.8
20260503191542 59 200 2.0 6.0 0.00 0.01 0.01 79 987.8
20260503191044 59 194 2.0 5.0 0.00 0.01 0.01 80 987.8
20260503190541 59 192 2.0 6.0 0.00 0.01 0.01 80 987.9
20260503190046 59 192 3.0 6.0 0.00 0.01 0.01 79 987.9
20260503185542 59 196 3.0 6.0 0.00 0.01 0.01 79 987.8
20260503185041 59 196 3.0 6.0 0.00 0.01 0.01 80 987.9
20260503184543 59 194 2.0 8.0 0.00 0.01 0.01 80 987.9
20260503184041 59 190 4.0 8.0 0.00 0.01 0.01 80 988.0
20260503183541 59 159 1.0 5.0 0.00 0.01 0.01 78 987.9
20260503183043 60 159 0.0 4.0 0.00 0.01 0.01 78 988.0
20260503182539 60 178 1.0 4.0 0.00 0.01 0.01 78 988.0
20260503182038 59 121 0.0 3.0 0.00 0.01 0.01 80 988.0
20260503181555 59 121 0.0 3.0 0.00 0.01 0.01 79 988.1
20260503181040 59 121 1.0 3.0 0.00 0.01 0.01 80 988.1
20260503180537 59 121 2.0 6.0 0.00 0.01 0.01 80 988.0
20260503180046 59 118 2.0 4.0 0.00 0.01 0.01 80 988.0
20260503175536 59 115 0.0 3.0 0.00 0.01 0.01 80 988.0
20260503175035 58 115 1.0 3.0 0.00 0.01 0.01 80 988.0
20260503174535 58 115 1.0 3.0 0.00 0.01 0.01 81 988.1
20260503174035 58 115 1.0 3.0 0.00 0.01 0.01 80 988.1
20260503173535 58 115 0.0 3.0 0.00 0.01 0.01 80 988.1
20260503173035 58 115 1.0 4.0 0.00 0.01 0.01 80 988.0
20260503172536 59 115 2.0 4.0 0.00 0.01 0.01 80 988.0
20260503172034 59 112 0.0 4.0 0.00 0.01 0.01 80 988.1
20260503171534 59 112 1.0 4.0 0.00 0.01 0.01 81 988.1
20260503171034 59 109 1.0 4.0 0.00 0.01 0.01 82 988.0
20260503170533 58 105 2.0 4.0 0.00 0.01 0.01 83 988.0
20260503151009 54 144 0.0 3.0 0.00 0.03 0.01 94 987.2
20260503150510 54 144 1.0 3.0 0.00 0.03 0.01 95 987.2
20260503131056 54 182 0.0 0.0 0.00 0.03 0.01 96 985.8
20260503130556 54 182 0.0 0.0 0.00 0.03 0.01 96 985.9
20260503120104 54 182 0.0 0.0 0.01 0.03 0.01 95 985.8
20260503110549 54 182 0.0 1.0 0.00 0.02 0.00 96 986.3